Wetbulb
70.37 70.86 71.04 70.49 70.40 70.23 69.93 70.33 70.18 70.68 70.59 70.69 70.82 70.85 71.46 71.77 72.25 72.20 69.84 70.38 70.99 70.13 69.37 70.15 70.96 72.30 72.61 71.02 70.93 70.10 69.17 68.08 66.76 68.35 69.81 70.93 70.54 71.57 72.61 71.69 70.89 74.28 74.66
71.72 71.70 71.42 70.82 70.58 70.05 69.80 70.05 71.08 70.43 70.70 70.79 71.41 71.49 71.92 72.11 72.49 72.02 71.29 71.97 70.95 70.17 68.76 68.63 69.25 72.58 72.11 71.65 70.69 69.98 68.96 68.90 67.82 68.14 69.65 70.64 71.35 72.24 72.81 72.84 72.96 73.71 74.52
71.86 72.04 71.32 71.07 70.78 69.89 69.64 69.64 70.93 71.36 70.39 70.57 71.03 70.80 71.45 71.86 72.15 72.17 72.36 72.08 72.05 71.83 71.28 69.81 69.90 71.86 71.78 71.05 71.36 70.89 71.18 70.71 69.35 68.97 69.53 70.74 71.54 71.83 72.52 73.06 73.09 73.98 74.46
72.50 67.82 66.03 69.12 71.02 71.00 69.71 69.32 69.63 70.58 70.76 70.76 71.05 70.86 71.67 71.99 72.04 72.30 72.47 72.66 72.61 72.51 72.40 71.55 71.66 71.58 71.96 71.57 71.11 71.98 71.93 71.39 70.83 70.31 69.69 69.85 70.26 71.73 71.23 70.85 70.86 71.47 72.15
71.01 67.05 63.71 69.10 71.48 70.61 69.78 69.19 69.46 69.41 70.05 70.79 70.58 71.16 70.34 71.27 71.25 72.05 72.47 72.31 71.72 71.57 71.91 72.53 72.16 71.91 70.04 71.00 72.48 71.92 71.24 70.50 70.40 69.83 68.83 68.35 69.22 69.80 69.65 70.41 70.00 71.10 71.67
68.56 70.16 70.10 71.71 71.15 71.03 71.17 70.12 69.32 69.14 69.14 69.67 70.00 70.34 69.77 69.61 67.61 67.88 71.28 72.32 72.37 71.58 71.69 72.49 73.23 71.13 71.04 68.62 68.00 67.95 70.33 70.52 70.06 68.97 69.25 68.20 69.66 69.42 69.89 70.07 69.78 69.50 67.98
69.28 70.30 71.41 72.11 71.08 70.70 71.21 70.85 69.93 69.69 69.48 69.02 69.17 69.87 69.93 69.93 65.03 65.74 68.31 72.32 71.80 71.63 71.94 71.97 72.31 72.30 71.02 72.83 68.56 66.54 66.74 66.19 68.26 71.74 70.16 69.95 69.52 70.70 70.65 70.07 69.81 69.52 69.11
66.52 68.51 70.39 71.33 71.00 70.81 70.71 70.41 70.99 70.03 69.64 69.33 69.15 69.26 69.65 70.01 63.98 63.47 66.63 71.20 71.74 71.64 72.10 72.28 71.90 72.46 72.32 72.34 72.55 71.87 71.83 71.82 70.59 70.08 70.54 71.69 71.53 72.21 71.68 71.51 70.54 69.92 69.65
65.24 66.92 68.73 70.16 70.59 70.97 70.21 70.23 70.23 70.51 69.71 69.96 70.36 69.33 69.00 69.77 62.75 62.50 64.56 69.62 70.18 70.98 72.05 72.43 72.00 71.91 67.86 64.70 71.14 70.85 70.97 71.55 67.82 64.54 65.68 65.57 65.32 64.98 67.93 70.20 67.78 67.62 67.80
61.81 65.47 68.69 69.26 69.86 70.36 71.24 70.77 70.41 70.32 70.82 70.53 70.14 70.23 67.85 70.02 62.95 61.31 63.84 69.77 69.33 69.70 70.74 71.39 65.37 69.58 63.95 61.47 69.71 70.76 69.83 71.16 71.07 71.12 70.30 67.93 66.85 67.57 65.20 70.81 70.53 68.78 67.40
60.74 64.79 67.91 68.31 67.57 69.07 70.70 71.83 70.63 70.16 70.21 70.41 70.21 70.47 70.27 69.28 69.26 60.61 60.18 69.88 69.99 69.90 69.89 69.55 70.36 61.75 59.48 57.84 61.29 70.98 69.89 71.17 68.72 70.16 69.59 68.38 66.43 66.19 66.72 68.22 69.68 69.68 68.54
60.84 62.33 65.63 67.30 66.52 68.24 68.81 70.46 71.02 70.19 69.58 69.08 69.26 69.53 70.22 70.93 63.76 60.00 59.28 62.00 66.12 69.99 69.75 70.17 70.13 59.43 56.76 56.03 57.84 60.46 59.66 64.47 69.58 68.54 66.68 64.94 64.34 65.33 66.17 66.25 66.91 67.46 68.91
60.37 61.90 65.14 66.25 65.81 66.79 66.96 67.51 69.29 69.33 68.90 68.97 68.86 68.72 69.56 70.53 70.77 60.36 58.37 58.70 60.56 69.05 70.86 67.62 61.09 55.31 54.56 56.11 55.79 57.82 58.71 66.96 68.02 65.79 64.88 63.97 64.64 66.10 66.54 66.44 66.43 66.44 66.77
58.79 59.91 62.98 64.07 64.02 65.19 67.34 68.47 68.11 68.18 68.54 68.88 68.56 67.72 68.74 69.31 70.82 70.78 65.97 62.52 59.55 62.11 63.24 64.92 61.99 61.07 60.00 62.08 60.65 59.61 64.05 67.46 67.21 66.04 64.47 64.34 64.78 65.15 65.38 65.35 64.87 64.98 65.14
57.94 58.64 59.91 62.18 63.59 63.97 66.04 64.74 63.39 68.20 67.57 66.03 67.19 67.12 67.10 66.28 63.66 58.03 62.92 68.22 66.07 63.57 64.51 65.44 64.67 64.54 63.56 64.72 64.47 64.11 64.35 65.01 64.46 64.28 64.01 64.05 64.24 64.59 64.44 64.12 64.28 63.95 63.51
56.57 57.54 58.46 60.73 62.67 63.16 65.09 64.52 54.94 53.49 52.95 51.86 54.22 60.58 62.88 57.96 53.86 55.31 53.49 54.04 53.31 53.86 63.42 64.58 64.88 65.74 65.39 65.19 64.28 63.09 62.87 62.09 63.15 63.52 63.90 64.30 63.90 63.69 63.71 62.96 63.55 63.51 61.43
55.88 56.97 58.15 58.14 61.23 62.04 63.80 63.71 61.42 58.75 52.22 50.59 45.88 46.61 54.35 54.58 49.69 51.50 52.21 50.59 50.23 52.77 65.49 65.36 66.05 65.67 65.64 65.58 64.80 64.07 63.16 63.81 65.05 63.69 63.91 63.88 63.71 63.29 62.12 62.80 62.71 62.35 60.76
56.22 53.50 57.03 58.09 59.97 61.66 63.51 63.46 63.33 61.90 60.86 61.52 53.11 51.32 49.14 47.33 51.22 50.15 49.43 48.94 54.32 55.23 65.16 65.57 64.94 65.29 65.78 65.87 65.33 64.70 64.65 64.37 63.61 63.64 63.26 63.27 62.83 62.44 61.43 61.39 61.54 61.72 61.58
55.78 55.82 56.31 57.69 59.35 60.61 63.31 63.97 63.22 63.35 62.33 62.57 62.73 53.31 50.92 46.06 48.06 46.24 46.06 61.47 60.81 60.02 62.53 65.73 66.43 66.22 66.06 65.94 65.67 65.38 65.08 63.60 63.06 63.04 62.69 62.30 62.19 61.67 61.08 61.00 60.57 54.14 56.09
55.80 55.75 56.25 57.87 59.62 60.05 60.66 62.29 62.26 62.33 62.37 61.95 61.86 62.32 57.82 53.90 56.64 57.68 56.01 59.36 62.57 62.33 63.82 65.62 66.40 66.32 65.94 65.59 65.25 64.79 63.22 61.39 62.14 62.43 62.06 61.75 61.56 61.28 60.69 60.27 60.27 60.05 59.69
55.90 56.24 56.28 56.87 59.06 60.45 61.59 61.68 63.07 62.43 62.37 62.81 62.69 62.60 53.13 58.75 59.85 61.48 60.00 59.24 60.95 64.13 65.03 66.20 65.94 65.31 65.22 65.36 64.96 63.38 63.07 62.24 62.07 61.85 61.52 61.39 61.12 60.54 60.90 60.76 61.02 59.93 58.87
56.00 56.00 57.14 57.96 59.37 60.75 61.11 61.71 62.35 62.17 61.71 61.44 61.87 61.86 47.69 58.22 60.30 60.75 61.34 60.85 61.54 65.71 66.83 66.58 65.52 65.42 64.87 64.63 63.91 63.23 62.39 61.93 61.55 61.37 61.46 61.19 60.95 60.81 60.61 60.68 60.03 58.61 57.91
57.68 57.71 58.27 59.18 60.10 58.58 59.81 60.51 60.31 61.00 61.26 61.23 61.48 61.44 56.70 58.64 60.73 61.82 62.33 63.13 63.73 65.80 66.49 66.39 65.45 64.64 64.63 64.59 64.42 64.20 62.79 62.28 62.16 61.88 61.07 60.29 60.05 60.27 60.48 59.85 59.10 57.72 57.32
60.63 58.81 58.86 60.01 60.15 60.01 60.01 60.06 61.65 57.98 62.24 62.33 62.10 61.73 60.93 59.48 60.93 62.43 63.74 63.93 64.59 65.71 66.07 65.56 65.27 64.89 63.82 63.70 64.04 64.01 64.11 63.19 62.31 62.08 61.72 60.54 59.88 56.09 59.98 59.15 58.83 57.84 58.05
62.37 59.90 60.28 60.27 60.67 60.03 60.68 62.02 62.87 63.33 63.57 62.55 62.69 62.12 61.84 61.93 61.39 62.35 64.23 65.14 64.92 64.98 64.92 64.59 64.71 64.47 63.93 63.62 63.86 63.66 53.81 44.79 59.90 54.40 61.36 60.94 60.07 59.74 59.07 58.58 58.38 57.96 57.41
62.38 61.21 60.31 60.31 60.85 61.36 61.39 61.89 62.62 63.16 63.41 63.96 64.19 64.54 62.84 61.49 62.68 63.24 64.45 65.20 64.75 64.96 65.05 64.94 64.12 64.14 64.28 64.09 63.78 52.71 38.45 40.26 50.16 44.79 60.72 60.91 60.03 59.41 58.68 58.43 58.11 57.76 57.75
MSLP
1010.61 1010.81 1011.01 1010.71 1010.98 1011.74 1012.29 1012.13 1012.49 1012.86 1013.12 1013.37 1013.59 1013.81 1014.12 1014.49 1014.65 1014.82 1015.11 1015.42 1015.63 1015.89 1016.10 1016.30 1016.41 1016.53 1016.46 1016.61 1016.96 1017.14 1017.21 1017.34 1017.31 1016.96 1016.83 1016.43 1016.17 1015.96 1015.77 1015.74 1015.70 1015.60 1015.54
1009.44 1009.76 1010.25 1010.45 1010.69 1011.04 1011.97 1011.93 1012.16 1012.36 1012.57 1012.67 1013.03 1013.40 1013.70 1014.02 1014.17 1014.34 1014.68 1014.80 1015.07 1015.45 1015.69 1016.00 1016.19 1016.22 1016.25 1016.50 1016.68 1016.80 1016.85 1017.06 1017.14 1017.06 1016.69 1016.35 1016.20 1015.84 1015.61 1015.51 1015.27 1015.16 1015.12
1008.59 1009.55 1010.03 1010.08 1010.26 1010.83 1011.31 1011.47 1011.47 1011.93 1011.99 1012.44 1012.65 1012.94 1013.26 1013.58 1013.81 1013.93 1014.16 1014.48 1014.74 1014.93 1015.06 1015.34 1015.55 1015.91 1016.02 1016.19 1016.30 1016.39 1016.53 1016.63 1016.76 1016.87 1016.57 1016.48 1016.28 1016.04 1015.76 1015.51 1015.24 1014.93 1014.82
1008.85 1009.19 1009.39 1010.05 1010.28 1010.13 1010.60 1011.06 1010.96 1011.38 1011.77 1011.96 1012.16 1012.53 1012.83 1012.99 1013.24 1013.50 1013.73 1013.96 1014.23 1014.50 1014.66 1015.01 1015.26 1015.48 1015.57 1015.75 1015.93 1016.00 1016.15 1016.27 1016.41 1016.50 1016.47 1016.39 1016.26 1016.09 1016.02 1015.72 1015.40 1015.22 1015.02
1008.87 1007.79 1007.94 1009.16 1009.39 1009.54 1009.62 1010.15 1010.30 1010.54 1010.92 1011.27 1011.66 1012.11 1012.36 1012.72 1012.91 1013.09 1013.26 1013.44 1013.75 1014.00 1014.23 1014.50 1014.65 1014.95 1014.93 1015.11 1015.44 1015.61 1015.92 1015.99 1016.12 1016.15 1016.17 1016.27 1016.12 1015.91 1015.73 1015.57 1015.55 1015.34 1015.18
1009.41 1009.32 1009.23 1009.00 1009.13 1008.88 1008.90 1009.29 1009.70 1009.91 1010.18 1010.59 1011.01 1011.45 1011.82 1012.03 1012.38 1012.55 1012.80 1013.00 1013.21 1013.52 1013.72 1013.93 1014.17 1014.44 1014.45 1014.42 1014.70 1015.10 1015.27 1015.44 1015.61 1015.81 1015.75 1015.65 1015.37 1015.45 1015.36 1015.34 1015.34 1015.26 1015.05
1009.54 1009.50 1009.03 1008.57 1008.22 1008.32 1008.29 1008.39 1008.85 1009.17 1009.48 1009.72 1010.24 1010.74 1010.96 1011.27 1011.65 1011.95 1012.29 1012.55 1012.72 1012.88 1013.09 1013.36 1013.74 1013.84 1013.94 1014.12 1014.22 1014.54 1014.72 1014.71 1014.71 1014.76 1014.89 1014.93 1014.94 1014.84 1014.99 1015.02 1015.11 1015.10 1014.88
1009.75 1009.12 1008.77 1008.44 1008.10 1007.84 1007.86 1008.00 1007.90 1008.18 1008.37 1008.73 1009.27 1009.87 1010.30 1010.58 1010.88 1011.31 1011.73 1012.07 1012.25 1012.31 1012.38 1012.71 1013.22 1013.27 1013.43 1013.66 1013.75 1014.03 1014.21 1014.21 1014.15 1014.23 1014.16 1014.12 1014.31 1014.43 1014.59 1014.61 1014.67 1014.69 1014.66
1009.37 1009.11 1008.51 1008.04 1007.65 1007.59 1007.54 1007.63 1007.19 1007.65 1007.59 1007.49 1007.81 1008.83 1009.41 1009.72 1010.06 1010.51 1011.19 1011.58 1011.64 1011.73 1011.82 1012.08 1012.45 1012.68 1012.80 1013.05 1013.32 1013.55 1013.69 1013.79 1013.67 1013.78 1013.65 1013.68 1013.97 1014.16 1014.19 1014.39 1014.43 1014.48 1014.20
1008.80 1008.49 1008.22 1008.04 1007.66 1007.22 1007.06 1006.82 1006.76 1006.99 1006.90 1006.81 1006.97 1007.47 1007.98 1008.62 1009.29 1009.84 1010.54 1010.87 1011.02 1011.17 1011.44 1011.53 1011.70 1011.99 1012.21 1012.51 1012.91 1013.06 1013.27 1013.15 1013.31 1013.46 1013.78 1013.75 1013.66 1013.68 1013.88 1013.72 1013.76 1013.86 1013.98
1008.40 1008.11 1007.82 1007.51 1007.32 1006.85 1006.46 1006.25 1006.37 1006.33 1006.36 1006.52 1006.59 1006.78 1007.20 1007.65 1008.24 1008.84 1009.49 1009.96 1010.15 1010.45 1010.67 1010.90 1011.10 1011.35 1011.72 1012.08 1012.42 1012.61 1012.47 1012.58 1012.82 1013.00 1013.15 1013.36 1013.53 1013.50 1013.39 1013.34 1013.39 1013.52 1013.62
1008.34 1007.95 1007.42 1006.99 1006.82 1006.52 1006.30 1005.88 1006.11 1006.21 1006.04 1005.88 1006.43 1006.55 1006.55 1006.71 1007.36 1007.88 1008.50 1008.96 1009.16 1009.56 1009.84 1010.17 1010.39 1010.66 1011.04 1011.46 1011.90 1011.77 1012.02 1012.26 1012.51 1012.66 1012.83 1012.96 1013.01 1013.08 1013.09 1013.16 1013.18 1013.22 1013.17
1007.79 1007.60 1007.14 1006.73 1006.40 1006.11 1006.08 1005.72 1005.92 1005.80 1005.50 1005.38 1005.53 1006.47 1006.38 1006.65 1006.77 1007.11 1007.67 1008.30 1008.70 1008.98 1009.05 1009.39 1009.75 1010.15 1010.53 1010.96 1011.19 1011.40 1011.74 1011.87 1012.07 1012.33 1012.39 1012.52 1012.56 1012.57 1012.75 1012.91 1012.90 1012.98 1013.04
1007.54 1007.18 1006.87 1006.53 1006.16 1005.93 1005.76 1005.66 1005.74 1005.50 1005.07 1004.77 1004.98 1005.62 1005.90 1006.62 1006.97 1006.86 1007.28 1007.84 1008.39 1008.82 1009.01 1009.35 1009.69 1010.00 1010.20 1010.32 1010.68 1010.90 1011.07 1011.20 1011.46 1011.57 1011.85 1012.05 1012.28 1012.51 1012.55 1012.71 1012.73 1012.86 1012.93
1006.93 1006.74 1006.46 1006.17 1005.79 1005.64 1005.39 1005.21 1005.32 1004.88 1004.55 1004.62 1004.83 1004.05 1004.25 1006.26 1007.69 1007.90 1007.66 1007.51 1007.70 1008.08 1008.67 1009.27 1009.49 1009.61 1009.82 1009.97 1010.13 1010.49 1010.69 1010.99 1011.13 1011.35 1011.60 1011.79 1012.01 1012.20 1012.28 1012.49 1012.59 1012.72 1012.76
1006.05 1006.10 1005.95 1005.63 1005.26 1005.09 1004.84 1004.56 1004.59 1004.42 1004.05 1003.82 1003.61 1003.48 1003.85 1004.76 1005.15 1005.92 1008.06 1008.01 1007.54 1007.56 1008.04 1008.39 1008.58 1008.59 1008.65 1009.02 1009.41 1009.80 1010.14 1010.45 1010.61 1010.89 1011.07 1011.23 1011.55 1011.85 1012.06 1012.30 1012.43 1012.55 1012.64
1005.19 1005.20 1005.14 1005.11 1004.77 1004.48 1004.17 1004.03 1003.92 1004.10 1003.90 1003.78 1004.01 1004.03 1002.87 1003.38 1003.91 1003.88 1006.56 1005.86 1006.61 1006.75 1006.72 1006.99 1007.51 1007.61 1007.58 1008.05 1008.54 1008.86 1009.23 1009.53 1009.94 1010.30 1010.52 1010.87 1011.26 1011.53 1011.69 1011.80 1012.07 1012.34 1012.50
1004.35 1004.37 1004.50 1004.33 1003.99 1003.71 1003.53 1003.29 1003.09 1003.35 1003.59 1003.54 1003.77 1003.99 1004.13 1003.82 1003.36 1003.44 1003.61 1005.89 1006.87 1006.00 1005.16 1005.33 1006.02 1006.82 1006.52 1007.07 1007.61 1008.04 1008.38 1008.78 1009.42 1009.81 1010.14 1010.38 1010.79 1011.09 1011.32 1011.51 1011.73 1011.91 1012.16
1003.45 1003.56 1003.57 1003.47 1003.30 1003.12 1002.89 1002.57 1002.50 1002.65 1002.89 1003.00 1003.68 1003.95 1004.00 1004.09 1004.28 1004.49 1004.82 1005.13 1004.79 1004.72 1005.14 1004.40 1004.50 1005.40 1005.50 1005.99 1006.50 1007.02 1007.42 1008.13 1008.67 1009.18 1009.58 1009.97 1010.31 1010.63 1010.97 1011.32 1011.57 1011.83 1012.13
1002.33 1002.37 1002.50 1002.45 1002.33 1002.37 1002.13 1001.91 1001.91 1001.95 1002.13 1002.21 1002.53 1002.78 1003.23 1004.03 1004.17 1004.31 1003.98 1003.83 1003.78 1004.01 1003.89 1003.72 1003.66 1004.06 1004.30 1004.93 1005.52 1006.28 1006.74 1007.49 1008.16 1008.60 1009.05 1009.46 1009.85 1010.16 1010.46 1010.94 1011.44 1011.76 1012.05
1001.25 1001.30 1001.41 1001.49 1001.31 1001.28 1001.14 1001.02 1000.98 1001.08 1001.26 1001.44 1001.63 1001.97 1002.10 1002.37 1002.44 1002.60 1002.65 1002.93 1002.97 1002.51 1002.25 1001.99 1002.25 1002.83 1003.23 1004.06 1004.77 1005.59 1006.15 1006.68 1007.31 1007.91 1008.48 1008.97 1009.46 1009.79 1010.14 1010.61 1011.09 1011.50 1011.88
1000.29 1000.28 1000.37 1000.22 1000.13 1000.26 1000.20 1000.17 1000.32 1000.43 1000.57 1000.78 1000.76 1000.97 1001.22 1001.61 1001.52 1001.45 1001.59 1001.72 1002.02 1001.64 1001.52 1000.76 1001.46 1001.75 1002.36 1003.16 1003.99 1004.83 1005.36 1005.93 1006.65 1007.32 1008.00 1008.56 1009.04 1009.44 1009.88 1010.26 1010.72 1011.10 1011.46
999.25 999.23 999.32 999.43 999.45 999.47 999.66 999.61 999.68 999.81 999.94 1000.01 1000.08 1000.16 1000.37 1000.49 1000.33 1000.31 1000.39 1000.18 1000.50 1000.68 1000.74 1000.96 1000.93 1001.39 1001.89 1002.70 1003.24 1003.74 1004.46 1005.06 1005.88 1006.70 1007.54 1008.17 1008.83 1009.32 1009.56 1009.91 1010.43 1010.94 1011.29
998.20 998.09 998.02 998.09 998.39 998.61 998.69 998.82 998.81 998.91 998.99 999.14 999.21 999.17 999.30 999.39 999.32 999.29 999.14 999.32 999.64 999.96 1000.06 1000.21 1000.68 1000.90 1001.60 1002.32 1002.78 1003.37 1004.02 1004.36 1005.36 1006.38 1007.08 1007.85 1008.24 1008.84 1009.29 1009.89 1010.19 1010.49 1010.66
997.04 997.05 996.95 996.88 997.21 997.56 997.84 998.00 997.99 998.15 998.21 998.41 998.26 998.22 998.15 998.15 998.33 998.31 998.31 998.63 998.98 999.49 999.38 999.64 1000.06 1000.68 1001.19 1001.56 1002.10 1003.02 1003.91 1004.41 1005.15 1006.20 1006.87 1007.53 1008.02 1008.49 1008.78 1009.12 1009.54 1010.08 1010.51
996.21 996.18 996.33 996.44 996.49 996.79 997.12 997.50 997.64 997.56 997.32 997.27 997.32 997.21 996.91 996.80 997.06 997.28 997.68 998.01 998.38 998.77 998.68 999.33 999.71 1000.13 1000.73 1001.22 1001.85 1002.91 1004.03 1004.66 1005.31 1006.09 1006.60 1007.27 1007.78 1008.00 1008.47 1008.80 1009.11 1009.58 1009.99
Wind_Speed
8 7 8 8 7 6 8 6 5 5 8 7 7 6 6 7 7 6 6 6 6 5 4 5 6 4 3 3 3 2 4 3 3 2 2 1 2 3 4 3 4 4 4
8 9 9 7 5 8 8 5 7 8 6 7 7 6 6 7 7 6 6 6 7 6 6 4 5 3 4 3 4 6 4 6 4 4 2 1 3 2 2 4 2 3 3
6 1 4 5 8 9 9 9 8 8 7 6 7 7 7 7 6 7 7 6 6 7 6 6 6 5 5 4 5 5 4 4 5 4 3 1 1 1 2 2 3 3 2
4 6 1 9 10 8 7 8 9 8 7 7 8 7 7 7 7 6 7 7 7 7 6 6 6 8 7 6 5 6 4 4 3 3 3 3 3 2 2 3 3 1 3
5 3 8 11 8 8 9 10 10 10 9 9 8 8 7 6 6 7 8 8 8 7 6 7 7 9 9 7 4 5 5 4 4 4 3 2 3 2 3 1 2 2 3
3 5 7 7 8 11 8 9 9 10 10 9 9 10 9 7 9 12 10 7 8 8 8 7 6 6 9 10 10 7 8 6 5 4 3 5 4 3 2 2 2 1 2
1 3 7 7 9 11 10 9 9 11 9 11 10 9 10 9 13 14 13 6 7 8 8 7 6 7 8 7 7 8 10 11 9 5 5 5 4 4 2 2 3 3 3
6 4 2 5 7 8 8 10 10 10 12 10 11 12 11 10 14 15 15 9 7 8 9 9 7 7 7 7 6 6 6 6 7 7 8 7 6 4 6 3 3 3 3
5 5 6 4 5 6 8 11 11 8 11 12 9 12 13 11 13 14 10 8 9 10 8 7 8 8 10 12 6 7 7 6 5 8 8 7 6 6 5 3 4 3 4
5 7 5 5 5 5 8 10 10 9 11 10 11 11 14 13 14 16 13 7 9 7 6 8 11 10 9 10 8 8 8 7 5 4 3 3 3 3 5 7 4 5 3
7 7 7 5 5 6 5 6 8 10 10 8 11 10 12 13 12 17 17 10 8 7 7 6 6 12 10 11 12 7 8 5 6 5 5 3 3 4 4 4 6 6 5
6 9 9 6 4 5 5 6 6 8 9 9 9 8 9 10 13 15 18 18 12 10 9 8 7 12 12 11 9 11 7 7 4 5 4 4 3 3 2 2 4 6 6
5 6 9 8 4 4 5 5 5 6 7 7 2 8 7 6 8 13 17 18 13 10 8 9 9 11 10 7 8 8 9 6 6 5 6 4 4 3 2 2 2 3 4
7 7 7 6 7 4 5 4 5 6 6 7 8 6 2 3 5 6 8 8 8 7 2 5 7 7 6 4 4 5 6 7 7 6 4 4 2 2 3 2 2 0 1
6 6 7 7 7 5 6 4 4 7 8 9 8 6 9 6 3 3 5 5 6 8 7 3 3 3 4 5 4 5 5 6 6 5 4 4 4 4 4 3 3 3 3
8 6 6 6 5 5 6 6 6 11 13 14 13 11 4 16 18 11 4 10 9 12 5 6 7 8 8 8 7 7 6 7 6 5 6 6 5 5 4 3 3 3 2
9 9 6 6 6 6 7 7 7 3 9 9 7 8 22 18 17 13 21 20 18 14 6 7 9 9 9 8 8 7 7 7 6 6 6 6 5 5 5 4 3 2 2
9 11 6 6 7 6 7 9 6 5 7 7 8 7 5 5 18 27 23 12 4 8 8 10 10 10 9 9 8 8 7 5 5 5 6 7 6 5 4 4 4 4 3
9 7 7 7 7 9 8 8 8 7 7 7 3 6 6 5 4 3 16 11 8 8 10 9 10 10 9 8 8 7 7 7 7 7 7 7 6 6 4 4 4 4 4
9 15 12 8 7 9 9 9 8 7 7 7 5 5 5 5 5 6 7 8 7 9 11 11 10 9 9 9 8 7 7 7 8 7 7 6 6 6 6 6 5 5 5
8 8 14 9 9 9 8 9 8 6 7 7 7 7 11 6 7 8 9 8 8 11 13 11 9 10 8 8 7 8 8 8 8 8 7 7 7 7 6 5 6 5 4
9 8 7 10 8 9 10 9 7 7 7 7 8 9 13 8 8 7 9 9 10 10 8 8 9 9 9 9 9 9 9 9 9 8 7 7 7 7 7 7 7 5 5
8 8 7 9 9 9 8 8 7 8 8 8 8 8 6 9 9 9 10 7 7 7 6 6 6 7 7 8 9 9 10 10 9 9 9 8 7 7 7 7 7 5 4
8 9 10 10 9 9 10 8 9 9 7 8 8 8 9 10 11 11 9 6 6 7 8 8 8 10 9 9 8 8 7 8 8 9 12 9 9 8 7 5 6 6 6
7 9 8 9 8 8 8 8 7 6 7 8 8 9 9 10 11 9 8 7 7 8 10 8 8 11 13 14 13 12 10 13 11 10 8 10 11 12 9 7 8 7 7
7 6 6 6 6 6 7 6 6 6 6 7 7 8 9 11 9 9 8 8 8 8 10 7 9 13 14 12 14 14 12 13 11 12 10 9 9 8 8 9 12 8 8
Wind_Direction
196 205 216 203 192 195 224 195 197 199 189 189 190 197 191 206 208 195 193 182 198 199 208 205 219 218 220 201 189 187 209 191 228 286 251 268 275 279 280 244 249 248 256
199 195 213 197 200 205 203 195 186 210 196 185 175 189 194 215 204 198 204 194 192 203 213 201 231 221 211 191 198 202 207 207 202 252 279 286 256 303 286 286 264 257 272
150 163 290 222 197 198 203 195 183 200 193 182 188 191 193 212 212 210 213 197 198 207 202 203 218 210 207 207 211 210 216 207 202 222 250 251 285 314 321 318 317 318 305
82 153 285 276 250 211 185 200 193 194 191 191 194 198 207 208 212 216 212 204 208 213 199 209 215 205 206 204 211 218 221 220 216 226 253 259 252 241 255 272 286 298 311
226 99 191 283 242 227 184 194 203 189 196 196 197 200 201 209 219 209 215 209 211 215 209 215 211 220 217 206 197 220 211 219 227 235 237 219 238 241 242 253 262 300 286
158 272 229 239 220 230 210 199 198 197 195 195 205 204 199 207 206 204 213 206 212 208 220 220 227 227 233 229 217 225 188 204 218 203 228 240 248 236 218 224 226 234 274
254 227 273 249 226 220 218 200 200 203 192 200 206 209 212 209 199 204 208 210 212 213 213 222 223 236 220 234 223 214 220 224 225 200 225 222 248 219 204 229 227 222 229
319 326 313 259 241 235 220 228 203 199 201 198 195 201 211 216 199 206 205 204 218 227 216 216 215 236 228 223 225 230 237 223 227 225 228 237 222 219 215 226 248 236 253
316 308 317 322 269 241 231 234 235 204 204 205 192 192 203 217 202 208 193 214 219 230 220 210 211 228 227 208 201 225 243 249 219 225 234 233 241 251 223 185 235 231 256
322 307 298 297 290 270 253 244 236 223 225 206 211 204 199 210 195 203 191 205 220 224 221 223 211 222 221 187 197 209 227 236 223 208 196 200 207 243 198 218 233 235 226
295 295 282 271 279 279 281 256 241 237 232 215 210 211 207 202 204 198 191 201 215 219 221 222 221 209 211 193 207 202 216 194 209 206 199 209 249 267 260 228 222 223 226
286 300 284 269 280 292 294 279 249 242 235 234 229 218 219 209 205 202 197 205 200 209 217 221 219 195 207 202 194 223 207 185 181 186 197 218 227 236 229 247 232 226 229
288 276 281 281 270 275 276 285 276 238 222 214 231 243 222 214 221 202 196 200 209 211 217 212 184 179 184 191 218 210 184 192 189 188 208 216 205 207 261 260 220 248 260
264 278 281 275 278 265 258 248 265 256 223 198 173 217 178 240 236 215 208 198 211 221 154 167 179 179 182 165 144 186 194 192 196 197 207 213 182 203 226 207 235 195 282
246 262 274 271 260 255 250 239 241 257 203 178 204 173 140 91 344 308 312 222 206 209 171 162 184 179 186 189 186 187 186 184 197 200 205 200 206 217 223 193 205 185 212
254 253 249 260 259 248 252 257 191 236 231 223 180 145 131 155 160 83 298 267 243 179 180 196 209 203 195 191 189 186 186 200 211 205 212 210 218 216 203 192 196 206 203
239 246 245 243 252 252 248 245 256 198 267 279 316 297 180 167 146 137 240 211 204 177 202 195 216 207 198 187 190 187 194 203 192 211 214 211 206 205 185 191 184 188 172
236 229 232 247 245 251 236 242 230 221 227 227 228 240 287 286 176 199 213 164 175 234 198 191 196 211 194 194 194 198 201 191 204 212 206 196 192 190 181 189 187 187 193
229 225 226 234 236 241 237 232 232 223 229 245 169 173 206 175 269 79 167 212 213 211 220 206 186 199 194 192 191 192 190 188 195 192 192 189 188 181 189 200 201 201 180
238 235 226 232 229 234 233 225 225 224 227 229 223 223 162 144 178 203 204 216 219 220 215 202 193 191 188 183 180 180 179 180 191 191 189 187 181 186 186 188 200 192 199
233 236 229 231 224 224 218 220 224 216 232 233 232 224 181 192 218 222 220 208 219 224 210 192 182 188 177 174 167 177 187 186 185 184 183 180 177 185 191 196 194 190 174
233 224 213 221 216 221 223 220 214 223 231 240 251 247 202 208 213 217 223 211 216 226 214 190 186 180 171 173 173 181 186 185 182 179 181 182 180 185 184 185 185 174 177
240 240 213 220 219 216 208 218 211 213 220 232 238 240 205 221 219 208 215 213 209 213 187 195 179 172 164 171 176 172 177 181 182 177 177 174 179 184 184 182 180 168 178
254 243 227 215 202 200 202 204 211 209 213 229 231 237 229 216 225 223 210 199 198 206 195 188 194 180 168 172 168 171 175 156 161 175 173 178 177 165 170 179 176 182 184
259 242 226 217 199 199 191 201 207 214 229 224 229 234 231 221 216 212 201 190 191 197 195 185 180 178 173 165 164 169 152 139 160 160 168 173 176 173 174 179 176 178 179
247 218 223 209 194 187 192 198 214 229 239 238 234 251 230 212 201 203 198 189 184 188 174 178 173 169 167 164 161 151 147 152 145 164 168 173 175 173 171 175 176 181 190